Location: Ferintosh
(52.7647°N, 112.9692°W)
Time: 15:51:11
(UTC+00:00)

Transit 2A - Pass Details

Date: 23 May 2024
Orbit: 592 x 959 km, 66.7° (Epoch: 23 June)

Event Time Altitude Azimuth Distance (km) Brightness Sun altitude
Rises 11:05:04 0° 308° (NW) 3,215 9.1 -2.9°
Reaches altitude 10° 11:07:58 10° 325° (NW) 2,358 8.6 -2.5°
Maximum altitude 11:12:04 21° 14° (NNE) 1,791 8.8 -2.1°
Drops below altitude 10° 11:16:28 10° 62° (ENE) 2,540 10.6 -1.5°
Sets 11:19:43 0° 78° (ENE) 3,536 10.8 -1.2°
